TimeCET,TemperatureF,Dew PointF,Humidity,Sea Level PressureIn,VisibilityMPH,Wind Direction,Wind SpeedMPH,Gust SpeedMPH,PrecipitationIn,Events,Conditions,WindDirDegrees,DateUTC
12:25 AM,32.0,30.2,93,29.98,6.2,NNW,8.1,-,N/A,,Partly Cloudy,340,2012-10-27 22:25:00
12:55 AM,32.0,30.2,93,29.98,6.2,NNW,6.9,-,N/A,,Partly Cloudy,340,2012-10-27 22:55:00
1:25 AM,33.8,30.2,87,29.98,6.2,NNW,4.6,-,N/A,,Unknown,340,2012-10-27 23:25:00
1:55 AM,26.6,23.0,86,29.98,6.2,SW,3.5,-,N/A,,Unknown,220,2012-10-27 23:55:00
2:25 AM,28.4,24.8,86,29.98,6.2,WNW,2.3,-,N/A,,Unknown,300,2012-10-28 00:25:00
2:55 AM,28.4,26.6,93,29.98,6.2,East,1.2,-,N/A,,Unknown,80,2012-10-28 00:55:00
2:25 AM,26.6,24.8,93,29.98,6.2,NW,2.3,-,N/A,,Unknown,320,2012-10-28 01:25:00
2:55 AM,26.6,24.8,93,29.98,6.2,NNW,1.2,-,N/A,,Unknown,330,2012-10-28 01:55:00
3:25 AM,24.8,23.0,93,29.98,6.2,NW,1.2,-,N/A,,Unknown,320,2012-10-28 02:25:00
3:55 AM,24.8,24.8,100,29.98,6.2,NNE,1.2,-,N/A,,Unknown,30,2012-10-28 02:55:00
4:25 AM,24.8,23.0,93,29.98,6.2,Calm,Calm,-,N/A,,Overcast,0,2012-10-28 03:25:00
4:55 AM,24.8,23.0,93,29.98,1.9,ESE,1.2,-,N/A,,Overcast,120,2012-10-28 03:55:00
5:25 AM,24.8,23.0,93,29.98,6.2,ESE,1.2,-,N/A,,Mostly Cloudy,110,2012-10-28 04:25:00
5:55 AM,24.8,23.0,93,29.98,6.2,ESE,3.5,-,N/A,,Overcast,110,2012-10-28 04:55:00
6:25 AM,23.0,21.2,93,29.98,6.2,SE,2.3,-,N/A,,Unknown,130,2012-10-28 05:25:00
6:55 AM,23.0,21.2,93,29.98,6.2,SE,1.2,-,N/A,,Partly Cloudy,130,2012-10-28 05:55:00
7:25 AM,24.8,23.0,93,29.98,6.2,SE,1.2,-,N/A,,Mostly Cloudy,130,2012-10-28 06:25:00
7:55 AM,24.8,23.0,93,29.98,6.2,ESE,2.3,-,N/A,,Partly Cloudy,120,2012-10-28 06:55:00
8:25 AM,28.4,26.6,93,29.98,6.2,SE,1.2,-,N/A,,Partly Cloudy,140,2012-10-28 07:25:00
8:55 AM,30.2,28.4,93,29.98,6.2,SE,1.2,-,N/A,,Partly Cloudy,130,2012-10-28 07:55:00
9:25 AM,33.8,32.0,93,29.98,6.2,SE,2.3,-,N/A,,Unknown,130,2012-10-28 08:25:00
9:55 AM,37.4,33.8,87,29.98,6.2,SW,3.5,-,N/A,,Unknown,220,2012-10-28 08:55:00
10:25 AM,41.0,35.6,81,29.98,6.2,South,3.5,-,N/A,,Unknown,190,2012-10-28 09:25:00
10:55 AM,42.8,37.4,81,29.98,6.2,South,5.8,-,N/A,,Unknown,190,2012-10-28 09:55:00
11:25 AM,42.8,35.6,76,29.98,6.2,SSW,8.1,-,N/A,,Unknown,210,2012-10-28 10:25:00
11:55 AM,44.6,35.6,71,29.98,6.2,SSW,9.2,-,N/A,,Partly Cloudy,200,2012-10-28 10:55:00
12:25 PM,44.6,33.8,66,29.98,6.2,SW,10.4,-,N/A,,Unknown,220,2012-10-28 11:25:00
12:55 PM,46.4,35.6,66,29.98,6.2,SSW,9.2,-,N/A,,Unknown,210,2012-10-28 11:55:00
1:25 PM,48.2,33.8,58,29.98,6.2,SSW,11.5,-,N/A,,Unknown,210,2012-10-28 12:25:00
1:55 PM,48.2,35.6,62,29.95,6.2,SSW,11.5,-,N/A,,Unknown,210,2012-10-28 12:55:00
2:25 PM,46.4,33.8,62,29.95,6.2,SW,12.7,-,N/A,,Partly Cloudy,230,2012-10-28 13:25:00
2:55 PM,48.2,35.6,62,29.95,-9999.0,SSW,11.5,-,N/A,,Scattered Clouds,210,2012-10-28 13:55:00
3:25 PM,48.2,35.6,62,29.95,-9999.0,SW,10.4,-,N/A,,Partly Cloudy,220,2012-10-28 14:25:00
3:55 PM,48.2,35.6,62,29.95,6.2,SW,12.7,-,N/A,,Partly Cloudy,220,2012-10-28 14:55:00
4:25 PM,46.4,33.8,62,29.95,6.2,SSW,8.1,-,N/A,,Unknown,200,2012-10-28 15:25:00
4:55 PM,44.6,33.8,66,29.95,6.2,South,6.9,-,N/A,,Unknown,190,2012-10-28 15:55:00
5:25 PM,41.0,33.8,76,29.95,6.2,South,5.8,-,N/A,,Partly Cloudy,180,2012-10-28 16:25:00
5:55 PM,41.0,33.8,76,29.95,6.2,South,6.9,-,N/A,,Overcast,180,2012-10-28 16:55:00
6:25 PM,41.0,33.8,76,29.95,6.2,South,6.9,-,N/A,,Overcast,170,2012-10-28 17:25:00
6:55 PM,41.0,35.6,81,29.95,6.2,South,9.2,-,N/A,,Overcast,170,2012-10-28 17:55:00
7:25 PM,41.0,35.6,81,29.95,6.2,South,9.2,-,N/A,,Overcast,180,2012-10-28 18:25:00
7:55 PM,41.0,35.6,81,29.95,6.2,South,10.4,-,N/A,,Overcast,170,2012-10-28 18:55:00
8:25 PM,41.0,35.6,81,29.95,6.2,South,10.4,-,N/A,,Overcast,180,2012-10-28 19:25:00
8:55 PM,41.0,35.6,81,29.95,6.2,South,10.4,-,N/A,,Overcast,180,2012-10-28 19:55:00
9:25 PM,41.0,33.8,76,29.95,6.2,South,10.4,-,N/A,,Overcast,180,2012-10-28 20:25:00
9:55 PM,41.0,33.8,76,29.95,6.2,South,11.5,-,N/A,,Overcast,190,2012-10-28 20:55:00
10:25 PM,42.8,32.0,66,29.95,6.2,South,10.4,-,N/A,,Overcast,190,2012-10-28 21:25:00
10:55 PM,41.0,32.0,70,29.95,6.2,South,10.4,-,N/A,,Overcast,180,2012-10-28 21:55:00